Regional Weather Roundup
Issued by NWS Bismarck, ND

Home | Current Version | Previous Version | Text Only | Print | Product List | Glossary On
Versions: 1 2 3 4 5 6 7 8 9 10 11 12 13 14 15 16 17 18 19 20 21 22 23 24 25 26 27 28 29 30 31 32 33 34 35 36 37 38 39 40 41 42 43 44 45 46 47 48 49 50
908
ASUS43 KBIS 042110
RWRBIS

NWR BROADCAST TEXT
NATIONAL WEATHER SERVICE BISMARCK ND
400 PM CDT WED MAY 04 2016

NOTE: "FAIR" INDICATES FEW OR NO CLOUDS BELOW 12,000 FEET WITH NO
SIGNIFICANT WEATHER AND/OR OBSTRUCTIONS TO VISIBILITY.


CITY           SKY/WX    TMP DP  RH WIND       PRES   REMARKS
WILLISTON      SUNNY     84  39  20 SW12G20   29.93F
MINOT          SUNNY     88  37  16 SW8       29.92F
MINOT AFB      SUNNY     82  39  21 VRB6      29.90F
BISMARCK       SUNNY     79  41  25 CALM      30.01F
DICKINSON      SUNNY     77  36  22 S12G21    29.98F
GARRISON         N/A     82  41  23 SW12G18   29.97F
HETTINGER ARPT SUNNY     78  40  25 S10       30.04F
JAMESTOWN      SUNNY     70  33  25 SW5       30.01F
BEACH          FAIR      81  34  18 S16G28    30.01F
CARRINGTON     FAIR      75  32  20 VRB7      30.02F
HAZEN          FAIR      81  39  22 S6        29.99F
LINTON         FAIR      75  45  33 SW6       30.05F
MANDAN         FAIR      77  41  27 S7        30.02F
OAKES            N/A    N/A N/A N/A MISG        N/A
RUGBY          FAIR      77  37  24 SW8G17    29.96F
STANLEY        FAIR      82  39  21 SW16G22   29.97F
TIOGA          FAIR      82  36  18 SW20G25   29.99F
WATFORD CITY   FAIR      82  37  20 S12G20    29.95F
$$

CITY           SKY/WX    TMP DP  RH WIND       PRES   REMARKS
GRAND FORKS    MOSUNNY   69  30  23 VRB5      29.99F
GRAND FORKS AF SUNNY     68  28  22 VRB3      30.00F
DEVILS LAKE    SUNNY     70  30  22 S7        30.01F
FARGO          SUNNY     70  30  22 MISG      30.00F
CANDO          FAIR      75  36  23 S13       30.00F
CAVALIER       FAIR      68  32  26 SW7       29.98F
GRAFTON        FAIR      68  30  24 CALM      30.01F
GWINNER        FAIR      70  30  23 N7G16     30.03F
LANGDON        FAIR      73  34  23 VRB5G12   29.98F
ROLLA            N/A     75  32  20 SW16      29.97F
WALHALLA       FAIR      72  32  23 S5        29.97F
$$

CITY           SKY/WX    TMP DP  RH WIND       PRES   REMARKS
ABERDEEN       SUNNY     72  31  22 NW10      30.04F
MOBRIDGE       SUNNY     75  42  30 SE6       30.02F
BUFFALO          N/A     79  37  22 SE14G23   29.98F
RAPID CITY     SUNNY     75  40  28 S12       30.08F
GLASGOW        SUNNY     84  39  20 S10G21    29.89F
SIDNEY         SUNNY     84  39  20 S17G23    29.93F
WOLF POINT     SUNNY     86  42  21 SW14      29.89F
GLENDIVE       SUNNY     82  41  23 SW9G20    29.97F
MILES CITY     SUNNY     84  35  17 VRB7      29.94F
BAKER          SUNNY     79  34  19 S16G25    30.01F
$$

CITY           SKY/WX    TMP DP  RH WIND       PRES   REMARKS
BILLINGS       MOSUNNY   82  28  14 SW13      29.98F
GREAT FALLS    MOSUNNY   80  27  14 SW16G22   29.93F
REGINA         MOSUNNY   86  32  14 W16G29    29.82F
ESTEVAN        PTSUNNY   86  37  17 SW20G30   29.90F
$$





USA.gov is the U.S. government's official web portal to all federal, state and local government web resources and services.